CZ-3C DEB (VEB), 38095

Orbit data source: Space-Track

CZ-3C DEB (VEB), 38095 is space debris in HEO originally from a launch on Fri, 24 Feb 2012 UTC launched from the Xichang Space Center, China (XSC). Debris objects in space refer to the collection of defunct objects orbiting the Earth. Examples of debris include non-operational satellites, rocket bodies, and fragments generated from explosions, collisions, or faulty payload assembly.

Loading next visibility...
Identifier
38095, 2012-008C
Orbit
HEO
Country
Flag of CNCN / PRC
Related business
Manufacturer
CALT
Mission
Spacecraft
Bus & Motor
Unknown
Mass
Unknown
Launch date (UTC)
2012-02-24 (14 years ago)
Launch vehicle
Unknown
Launch site
Xichang Space Center, China (XSC)
Object type
Payload
Rocket body
Debris
Shape & HBR
Cyl, 1.5 m
Radar Cross Section
5.890 m², Large (>1 m²)

Expand to show TLE details & history
Last TLE update: 21 hours ago

TLE from 21 hours ago
0 CZ-3C DEB (VEB)
1 38095U 12008C   25290.98545487  .00009668  00000-0  21363-2 0  9990
2 38095  20.7896 151.2663 6583320 173.8811 202.2352  3.20177138132081
Epoch: 2025-10-17T23:39Z
TLE epoch observation values (Epoch: 2025-10-17T23:39:03.300Z)
Latitude
0.00001°
Longitude
129.79939°
Altitude
25,513.258 km
Speed
2.121 km/s
True Right ascension
10h 05m 08s
True Declination
0° 00' 00"
Sunlit
Object was in daylight at epoch
Visualization orbit readout
Latitude
Unknown
Longitude
Unknown
Altitude
Unknown
Speed
Unknown
Apparent Right ascension
Unknown
Apparent Declination
Unknown
Sunlit
N/A
Visualization observer readout
Local Sidereal Time
15:25:24
Azimuth
Unknown
Elevation
Unknown
Doppler factor
Unknown
Orbital elements
Apogee altitude
25,875.318 km
Perigee altitude
267.078 km
Semi-major axis
19,449.335 km
Eccentricity
0.65833
Inclination
20.7896°
RAAN
151.2663°
Arg. of periapsis
173.8811°
True anomaly
186.13067°
Mean anomaly
202.2352°
Eccentric anomaly
193.45715°
Mean motion
0.80018 °/min
Orbital period
449.9 mins
BSTAR
0.0021363
Loading maneuver chart data...
Computing Atmospheric mass density...
Loading historical data...
Loading historical data...
Loading historical data...
Loading historical data...
Loading historical data...
Loading historical data...
Loading historical data...

Documentation

Showing up to 5 results
|